OB104 TNCM-TFFJ

Flight info

Callsign OB104
Flight time 0h 16m
Altitude 7000
Route PJM
Aircraft DHC6/L-SDFGR/C

Departure

Time 2026-05-04 17:11
Airport Princess Juliana International Airport (TNCM)

Arrival

Time 2026-05-04 17:27
Airport St. Jean Airport (TFFJ)
Time Latitude Longitude Altitude Speed Heading
2026-05-04 16:52 18.04239 -63.11249 25 ft 0 kts 346°
2026-05-04 17:03 18.04238 -63.11249 25 ft 0 kts 346°
2026-05-04 17:04 18.04256 -63.11300 27 ft 10 kts 244°
2026-05-04 17:05 18.04221 -63.11468 25 ft 18 kts 253°
2026-05-04 17:05 18.04088 -63.11647 25 ft 18 kts 227°
2026-05-04 17:06 18.04041 -63.11859 24 ft 8 kts 261°
2026-05-04 17:06 18.04025 -63.11908 27 ft 4 kts 241°
2026-05-04 17:07 18.03945 -63.11934 24 ft 10 kts 92°
2026-05-04 17:07 18.03948 -63.11897 24 ft 0 kts 86°
2026-05-04 17:10 18.03948 -63.11858 24 ft 4 kts 87°
2026-05-04 17:11 18.03953 -63.11819 24 ft 17 kts 79°
2026-05-04 17:11 18.04014 -63.11432 27 ft 88 kts 83°
2026-05-04 17:11 18.04315 -63.09948 890 ft 104 kts 85°
2026-05-04 17:12 18.04232 -63.09195 1307 ft 105 kts 110°
2026-05-04 17:12 18.03288 -63.07948 1656 ft 120 kts 140°
2026-05-04 17:13 18.01641 -63.07493 1679 ft 134 kts 187°
2026-05-04 17:14 18.00008 -63.07900 1772 ft 144 kts 179°
2026-05-04 17:14 17.99106 -63.07562 1785 ft 141 kts 135°
2026-05-04 17:14 17.98849 -63.05626 1791 ft 143 kts 70°
2026-05-04 17:15 17.99533 -63.04851 1800 ft 150 kts 43°
2026-05-04 17:15 18.00556 -63.03201 1896 ft 133 kts 101°
2026-05-04 17:16 17.99385 -63.01952 2394 ft 113 kts 136°
2026-05-04 17:16 17.97923 -63.00186 3114 ft 102 kts 121°
2026-05-04 17:17 17.97540 -62.99566 3354 ft 100 kts 120°
2026-05-04 17:17 17.96383 -62.97295 3386 ft 130 kts 114°
2026-05-04 17:18 17.95996 -62.96419 3387 ft 134 kts 114°
2026-05-04 17:18 17.95153 -62.94597 3132 ft 146 kts 116°
2026-05-04 17:19 17.94267 -62.92685 2660 ft 145 kts 115°
2026-05-04 17:19 17.93388 -62.90777 2161 ft 143 kts 115°
2026-05-04 17:20 17.92551 -62.88976 1676 ft 129 kts 112°
2026-05-04 17:20 17.91833 -62.87393 1364 ft 111 kts 111°
2026-05-04 17:20 17.91494 -62.86669 1345 ft 108 kts 112°
2026-05-04 17:21 17.90834 -62.85232 1352 ft 112 kts 109°
2026-05-04 17:21 17.90274 -62.83742 1341 ft 114 kts 84°
2026-05-04 17:22 17.90883 -62.83157 1165 ft 133 kts 10°
2026-05-04 17:22 17.91712 -62.83561 1029 ft 135 kts 316°
2026-05-04 17:23 17.92623 -62.86263 693 ft 125 kts 282°
2026-05-04 17:23 17.92650 -62.87228 743 ft 134 kts 262°
2026-05-04 17:23 17.92244 -62.89119 1057 ft 121 kts 242°
2026-05-04 17:24 17.91738 -62.89814 1147 ft 121 kts 218°
2026-05-04 17:24 17.89788 -62.90005 688 ft 93 kts 79°
2026-05-04 17:25 17.90232 -62.89637 399 ft 98 kts 29°
2026-05-04 17:25 17.90999 -62.88744 214 ft 70 kts 91°
2026-05-04 17:26 17.90543 -62.87675 533 ft 88 kts 119°
2026-05-04 17:26 17.90433 -62.85933 432 ft 65 kts 84°
2026-05-04 17:27 17.90427 -62.84945 195 ft 73 kts 87°
2026-05-04 17:27 17.90440 -62.84291 11 ft 11 kts 75°
2026-05-04 17:28 17.90440 -62.84325 13 ft 10 kts 271°
2026-05-04 17:29 17.90391 -62.84418 25 ft 18 kts 261°
2026-05-04 17:29 17.90375 -62.84476 31 ft 0 kts 261°